星链-35564(STARLINK-35564)

导读

STARLINK-35564是美国太空探索技术公司星链星座的一员,于2026年1月12日发射升空。星链项目旨在构建全球卫星互联网星座,为全球偏远地区、海洋等地面网络难以覆盖的区域提供高速互联网服务。该卫星入轨后,将和星链其他卫星协同工作,进一步扩展星链星座的全球覆盖范围与网络服务能力。

基本信息
目录编号:
67420
目录名称:
STARLINK-35564
国际标识:
2026-005S
轨道中心:
EARTH
卫星名称:
星链-35564
卫星全名:
星链-35564(STARLINK-35564)
卫星状态:
在轨 (已飞行235 天)
发射日期:
2026-01-12 UTC
国别 :
美国 (US)
星等 :
--
轨道信息
数据来源 国际轨道数据
星历时间: 2026-09-04T12:20:45+0800
11小时前
查看轨道信息
半长轴: 6861.137km
偏心率: 0.0001266
轨道倾角: 43.000°
近地点辐角 252.858°
升交点赤经 310.024°
平近点角 107.213°
近地点: 482.131km
远地点: 483.869km
周期: 94.266分钟
每日圈数: 15.275964
详细信息
固有亮度:
5
最大亮度:
2.5
卫星平台:
Starlink V1.0
覆盖范围:
全球
运营商:
太空探索技术公司
运营商所在国:
美国
制造商(研发单位):
太空探索技术公司
制造商所在国:
美国
使用方式:
暂无
卫星简介
Starlink 计划是 SpaceX 推出的全球卫星互联网项目,通过发射低轨道卫星,为全球尤其是偏远地区提供高速、低延迟的互联网服务。自 2019 年起,Starlink 已部署数千颗卫星,旨在缩小全球数字鸿沟,推动互联网普及。该项目还为军事、航空等行业提供通信支持,带来广泛经济效益。
2D轨道图
3D轨道图
轨道高度分析图
轨道倾角分析图
轨道综合分析图
查看轨道综合分析图